When you browse on this site, cookies collect data to enhance your experience and personalize the content and advertising you see.
Visit our Privacy Policy to learn more. By continuing to use the site, you agree to this use of cookies and data.
  • Em Portugal
  • Lista de países
  • Para 7 dias
  • Temperatura da água
  • Mapas de satélite
  • Mapa do tempo
  • Widgets de tempo
  • user-avatar
    Iniciar Sessão

    Previsão horária em Czarnoszki

    Hoje, 14 Dezembro, Sexta-feira

    Tempo Temperatura Precipitação Vento Pressão Humidade
    00:00 -3°C° 0 mm 2 m/s 752 mmHg 80%
    01:00 -3°C° 0 mm 2 m/s 752 mmHg 79%
    02:00 -3°C° 0 mm 2 m/s 752 mmHg 80%
    03:00 -3°C° 0 mm 2 m/s 752 mmHg 81%
    04:00 -3°C° 0 mm 2 m/s 752 mmHg 81%
    05:00 -3°C° 0 mm 2 m/s 753 mmHg 82%
    06:00 -3°C° 0 mm 2 m/s 753 mmHg 82%
    07:00 -3°C° 0 mm 2 m/s 753 mmHg 83%
    08:00 -3°C° 0 mm 2 m/s 753 mmHg 81%
    09:00 -3°C° 0 mm 2 m/s 753 mmHg 79%
    10:00 -2°C° 0 mm 2 m/s 754 mmHg 77%
    11:00 -2°C° 0 mm 2 m/s 754 mmHg 74%
    12:00 -2°C° 0 mm 2 m/s 754 mmHg 71%
    13:00 -1°C° 0 mm 2 m/s 754 mmHg 68%
    14:00 -2°C° 0 mm 2 m/s 754 mmHg 71%
    15:00 -2°C° 0 mm 2 m/s 754 mmHg 74%
    16:00 0°C° 0 mm 1 m/s 755 mmHg 77%
    17:00 -3°C° 0 mm 2 m/s 755 mmHg 79%
    18:00 -3°C° 0 mm 2 m/s 755 mmHg 81%
    19:00 -3°C° 0 mm 2 m/s 755 mmHg 82%
    20:00 -3°C° 0 mm 2 m/s 755 mmHg 84%
    21:00 -3°C° 0 mm 2 m/s 755 mmHg 85%
    22:00 -3°C° 0 mm 2 m/s 755 mmHg 86%
    23:00 -3°C° 0 mm 2 m/s 756 mmHg 86%

    Amanhã, 15 Dezembro, Sábado

    Tempo Temperatura Precipitação Vento Pressão Humidade
    00:00 -3°C° 0 mm 2 m/s 756 mmHg 86%
    01:00 -3°C° 0 mm 2 m/s 756 mmHg 87%
    02:00 -3°C° 0 mm 2 m/s 756 mmHg 87%
    03:00 -3°C° 0 mm 2 m/s 756 mmHg 87%
    04:00 -2°C° 0 mm 2 m/s 756 mmHg 87%
    05:00 -3°C° 0 mm 2 m/s 756 mmHg 88%
    06:00 -3°C° 0 mm 2 m/s 756 mmHg 88%
    07:00 -3°C° 0 mm 2 m/s 756 mmHg 89%
    08:00 -2°C° 0 mm 2 m/s 756 mmHg 87%
    09:00 -2°C° 0 mm 2 m/s 757 mmHg 86%
    10:00 -2°C° 0 mm 2 m/s 757 mmHg 84%
    11:00 -2°C° 0 mm 2 m/s 757 mmHg 83%
    12:00 -1°C° 0 mm 2 m/s 757 mmHg 81%
    13:00 -1°C° 0 mm 3 m/s 756 mmHg 80%
    14:00 -2°C° 0 mm 3 m/s 756 mmHg 82%
    15:00 -2°C° 0 mm 3 m/s 756 mmHg 84%
    16:00 -2°C° 0 mm 3 m/s 756 mmHg 86%
    17:00 -2°C° 0 mm 3 m/s 756 mmHg 85%
    18:00 -2°C° 0 mm 3 m/s 756 mmHg 84%
    19:00 -2°C° 0 mm 3 m/s 756 mmHg 82%
    20:00 -4°C° 0 mm 3 m/s 755 mmHg 83%
    21:00 -4°C° 0 mm 3 m/s 755 mmHg 83%
    22:00 -4°C° 0 mm 3 m/s 755 mmHg 83%
    23:00 -4°C° 0 mm 3 m/s 755 mmHg 84%

    Depois de amanhã, 16 Dezembro, Domingo

    Tempo Temperatura Precipitação Vento Pressão Humidade
    00:00 -4°C° 0 mm 3 m/s 754 mmHg 84%
    01:00 -4°C° 0 mm 3 m/s 754 mmHg 85%
    02:00 -4°C° 0 mm 3 m/s 754 mmHg 85%
    03:00 -4°C° 0 mm 3 m/s 753 mmHg 84%
    04:00 -4°C° 0 mm 3 m/s 753 mmHg 84%
    05:00 -4°C° 0 mm 3 m/s 753 mmHg 83%
    06:00 -4°C° 0 mm 3 m/s 752 mmHg 82%
    07:00 -4°C° 0 mm 3 m/s 752 mmHg 80%
    08:00 -4°C° 0 mm 4 m/s 752 mmHg 78%
    09:00 -4°C° 0 mm 4 m/s 752 mmHg 76%
    10:00 -4°C° 0 mm 4 m/s 751 mmHg 74%
    11:00 -4°C° 0 mm 4 m/s 751 mmHg 74%
    12:00 -3°C° 0 mm 4 m/s 751 mmHg 74%
    13:00 -3°C° 0 mm 4 m/s 750 mmHg 74%
    14:00 -3°C° 0 mm 4 m/s 750 mmHg 76%
    15:00 -2°C° 0 mm 3 m/s 750 mmHg 78%
    16:00 -4°C° 0 mm 3 m/s 749 mmHg 80%
    17:00 -4°C° 0 mm 3 m/s 749 mmHg 82%
    18:00 -4°C° 0 mm 3 m/s 749 mmHg 83%
    19:00 -4°C° 0 mm 3 m/s 749 mmHg 85%
    20:00 -3°C° 0 mm 2 m/s 749 mmHg 86%
    21:00 -3°C° 0 mm 2 m/s 748 mmHg 86%
    22:00 -3°C° 0 mm 2 m/s 748 mmHg 87%
    23:00 -3°C° 0 mm 2 m/s 748 mmHg 87%

    17 Dezembro, Segunda-feira

    Tempo Temperatura Precipitação Vento Pressão Humidade
    00:00 -3°C° 0 mm 2 m/s 748 mmHg 88%
    01:00 -3°C° 0 mm 2 m/s 748 mmHg 88%
    02:00 -3°C° 0 mm 2 m/s 748 mmHg 90%
    03:00 -4°C° 0 mm 2 m/s 748 mmHg 92%
    04:00 -4°C° 0 mm 2 m/s 748 mmHg 94%
    05:00 -2°C° 0 mm 1 m/s 748 mmHg 94%
    06:00 -2°C° 0 mm 1 m/s 748 mmHg 94%
    07:00 -2°C° 0 mm 1 m/s 748 mmHg 94%
    08:00 -2°C° 0 mm 1 m/s 748 mmHg 92%
    09:00 -1°C° 0 mm 1 m/s 749 mmHg 91%
    10:00 -3°C° 0 mm 2 m/s 749 mmHg 89%
    11:00 -1°C° 0 mm 1 m/s 749 mmHg 86%
    12:00 0°C° 0 mm 1 m/s 749 mmHg 84%
    13:00 0°C° 0 mm 1 m/s 749 mmHg 82%
    14:00 0°C° 0 mm 1 m/s 749 mmHg 83%
    15:00 0°C° 0 mm 1 m/s 749 mmHg 84%
    16:00 -1°C° 0 mm 1 m/s 749 mmHg 85%
    17:00 -1°C° 0 mm 1 m/s 750 mmHg 86%
    18:00 -2°C° 0 mm 0 m/s 750 mmHg 86%
    19:00 -2°C° 0 mm 0 m/s 750 mmHg 86%
    20:00 -2°C° 0 mm 0 m/s 751 mmHg 86%
    21:00 -2°C° 0 mm 0 m/s 751 mmHg 87%
    22:00 -2°C° 0 mm 0 m/s 751 mmHg 87%
    23:00 -2°C° 0 mm 0 m/s 751 mmHg 87%

    18 Dezembro, Terça-feira

    Tempo Temperatura Precipitação Vento Pressão Humidade
    00:00 -3°C° 0 mm 0 m/s 752 mmHg 87%
    01:00 -2°C° 0 mm 1 m/s 752 mmHg 87%
    02:00 -2°C° 0 mm 1 m/s 752 mmHg 87%
    03:00 -2°C° 0 mm 1 m/s 752 mmHg 88%
    04:00 -2°C° 0 mm 1 m/s 752 mmHg 88%
    05:00 -3°C° 0 mm 0 m/s 752 mmHg 88%
    06:00 -3°C° 0 mm 0 m/s 753 mmHg 88%
    07:00 -3°C° 0 mm 0 m/s 753 mmHg 88%
    08:00 -3°C° 0 mm 0 m/s 753 mmHg 86%
    09:00 -2°C° 0 mm 1 m/s 753 mmHg 84%
    10:00 -1°C° 0 mm 1 m/s 754 mmHg 82%
    11:00 -1°C° 0 mm 1 m/s 754 mmHg 80%
    12:00 0°C° 0 mm 1 m/s 753 mmHg 78%
    13:00 0°C° 0 mm 1 m/s 753 mmHg 76%
    14:00 0°C° 0 mm 1 m/s 753 mmHg 79%
    15:00 -1°C° 0 mm 1 m/s 753 mmHg 81%
    16:00 -1°C° 0 mm 1 m/s 753 mmHg 84%
    17:00 -3°C° 0 mm 2 m/s 753 mmHg 84%
    18:00 -4°C° 0 mm 2 m/s 753 mmHg 85%
    19:00 -4°C° 0 mm 2 m/s 753 mmHg 85%
    20:00 -4°C° 0 mm 2 m/s 752 mmHg 86%
    21:00 -4°C° 0 mm 2 m/s 752 mmHg 86%
    22:00 -5°C° 0 mm 3 m/s 752 mmHg 86%
    23:00 -5°C° 0 mm 3 m/s 752 mmHg 87%

    19 Dezembro, Quarta-feira

    Tempo Temperatura Precipitação Vento Pressão Humidade
    00:00 -5°C° 0 mm 3 m/s 752 mmHg 88%
    01:00 -5°C° 0 mm 3 m/s 751 mmHg 88%
    02:00 -5°C° 0 mm 3 m/s 751 mmHg 89%
    03:00 -5°C° 0 mm 3 m/s 750 mmHg 90%
    04:00 -5°C° 0 mm 4 m/s 750 mmHg 90%
    05:00 -5°C° 0 mm 4 m/s 749 mmHg 91%
    06:00 -5°C° 0 mm 4 m/s 749 mmHg 91%
    07:00 -4°C° 0 mm 4 m/s 749 mmHg 92%
    08:00 -5°C° 0 mm 5 m/s 748 mmHg 90%
    09:00 -5°C° 0 mm 5 m/s 748 mmHg 89%
    10:00 -4°C° 0 mm 5 m/s 748 mmHg 88%
    11:00 -4°C° 0 mm 5 m/s 747 mmHg 87%
    12:00 -4°C° 0 mm 5 m/s 747 mmHg 85%
    13:00 -2°C° 0 mm 5 m/s 746 mmHg 84%
    14:00 -2°C° 0 mm 4 m/s 746 mmHg 84%
    15:00 -2°C° 0 mm 4 m/s 746 mmHg 85%
    16:00 -2°C° 0 mm 4 m/s 745 mmHg 85%
    17:00 -2°C° 0 mm 4 m/s 745 mmHg 86%
    18:00 -2°C° 0 mm 4 m/s 745 mmHg 86%
    19:00 -1°C° 0 mm 3 m/s 745 mmHg 87%
    20:00 -1°C° 0 mm 3 m/s 745 mmHg 88%
    21:00 -1°C° 0 mm 3 m/s 745 mmHg 89%
    22:00 -1°C° 0 mm 3 m/s 745 mmHg 90%
    23:00 -1°C° 0 mm 3 m/s 745 mmHg 91%
    Mostrar mais